Retour au catalogue

CZ-4 DEB

ActifSSO
NORAD 35322·DEBRIS·🇨🇳 China

Lancé Oct 14, 1999 depuis Taiyuan Satellite Launch Center

Loading…

Prochains Passages (prochaines 24 heures)

TLE

FraisSource: Space-Track

Époque: Sep 13, 2026, 09:04 UTC

1 35322U 99057SA  26256.37819903  .00000308  00000-0  15378-3 0  9994
2 35322  99.0748 306.5219 0195791 203.2036 156.0206 14.14658006683640

Suivez CZ-4 DEB en temps réel avec AllMySat

Download on the App Store